Durango, Mexico

9:11 PM CDT on May 20, 2018 (GMT -0500)
Durango

Weather History for MMDO - March, 2013

Change the Weather History Date:

Thursday, March 28, 2013

  Actual Average Record
Temperature  
Mean Temperature 70 °F -  
Max Temperature 86 °F 81 °F 86 °F (2008)
Min Temperature 54 °F 46 °F 30 °F (2005)
Cooling Degree Days 5    
Growing Degree Days 20 (Base 50)    
Moisture  
Dew Point 26 °F    
Average Humidity 19    
Maximum Humidity 51    
Minimum Humidity 7    
Precipitation  
Precipitation 0.00 in - - ()
Sea Level Pressure  
Sea Level Pressure 30.03 in    
Wind  
Wind Speed 5 mph ()    
Max Wind Speed 20 mph    
Max Gust Speed -    
Visibility 12.1 miles    
Events      
Averages and records for this station are not official NWS values.
T = Trace of Precipitation, MM = Missing Value Source: Averaged Metar Reports

Daily Weather History Graph

Daily Weather History Graph

Search for Another Location

Airport or City:

Astronomy

Mar. 28, 2013 Rise Set
Actual Time 6:53 AM CST 7:12 PM CST
Civil Twilight 6:31 AM CST 7:35 PM CST
Nautical Twilight 6:04 AM CST 8:01 PM CST
Astronomical Twilight 5:37 AM CST 8:28 PM CST
Moon 8:50 PM CST (3/28) 7:36 AM CST (3/28)
Length of Visible Light 13h 04m
Length of Day
12h 18m
Full, 98% of the Moon is Illuminated
Mar 28
Full
Apr 2
Last Quarter
Apr 10
New
Apr 18
First Quarter
Apr 25
Full

Hourly Weather History & Observations

Time (CST) Temp. Dew Point Humidity Pressure Visibility Wind Dir Wind Speed Gust Speed Precip Events Conditions
2:55 AM 58 °F 36 °F 32% 29.84 in 6 mi WSW 2.2 mph - -   Overcast
6:10 AM 53.6 °F 35.6 °F 51% 29.91 in 10.0 mi Calm Calm - N/A   Mostly Cloudy
6:40 AM 55.4 °F 30.2 °F 38% 30.27 in 10.0 mi SW 5.8 mph - N/A   Mostly Cloudy
7:41 AM 57.2 °F 30.2 °F 36% 30.29 in 10.0 mi South 4.6 mph - N/A   Mostly Cloudy
8:44 AM 60.8 °F 26.6 °F 27% 29.97 in 10.0 mi Calm Calm - N/A   Mostly Cloudy
8:47 AM 59 °F 31 °F 23% 30.01 in 31 mi Calm Calm - -   Overcast
9:42 AM 64.4 °F 19.4 °F 18% 30.32 in 10.0 mi SW 9.2 mph - N/A   Mostly Cloudy
10:42 AM 68.0 °F 24.8 °F 20% 30.32 in 12.0 mi SSW 8.1 mph - N/A   Mostly Cloudy
11:40 AM 72 °F 36 °F 17% 29.98 in 19 mi SW 4.5 mph - -   Scattered Clouds
11:43 AM 69.8 °F 24.8 °F 18% 29.94 in 12.0 mi SSW 10.4 mph - N/A   Mostly Cloudy
12:40 PM 73.4 °F 24.8 °F 16% 30.25 in 14.0 mi South 10.4 mph - N/A   Scattered Clouds
1:44 PM 78.8 °F 19.4 °F 11% 30.20 in 14.0 mi SSW 11.5 mph - N/A   Mostly Cloudy
2:40 PM 83 °F 30 °F 7% 29.79 in 25 mi SW 4.5 mph - -   Scattered Clouds
2:43 PM 80.6 °F 19.4 °F 10% 29.78 in 14.0 mi SW 18.4 mph - N/A   Scattered Clouds
3:47 PM 80.6 °F 21.2 °F 11% 30.14 in 14.0 mi SSW 13.8 mph - N/A   Scattered Clouds
4:49 PM 78.8 °F 12.2 °F 8% 30.14 in 14.0 mi West 13.8 mph - N/A   Mostly Cloudy
5:43 PM 75.2 °F 14.0 °F 10% 29.80 in 14.0 mi WSW 19.6 mph - N/A   Overcast
5:55 PM 75 °F 28 °F 9% 29.73 in 19 mi West 4.5 mph - -   Overcast
6:40 PM 73.4 °F 15.8 °F 11% 30.17 in 14.0 mi WSW 13.8 mph - N/A   Overcast
7:40 PM 71.6 °F 19.4 °F 14% 30.20 in 12.0 mi WSW 6.9 mph - N/A   Overcast
8:50 PM 67 °F 32 °F 16% 29.77 in 9 mi West 2.2 mph - -   Partly Cloudy
11:45 PM 61 °F 31 °F 21% 29.84 in 6 mi South 2.2 mph - -   Scattered Clouds